TimeCST,TemperatureF,Dew PointF,Humidity,Sea Level PressureIn,VisibilityMPH,Wind Direction,Wind SpeedMPH,Gust SpeedMPH,PrecipitationIn,Events,Conditions,WindDirDegrees,DateUTC
12:15 AM,6.8,5.0,92,30.06,10.0,NW,5.8,-,N/A,,Unknown,320,2013-02-27 06:15:00
12:35 AM,5.0,3.2,92,30.07,8.0,WNW,6.9,-,N/A,,Unknown,300,2013-02-27 06:35:00
12:55 AM,6.8,6.8,100,30.07,8.0,WNW,8.1,-,N/A,,Unknown,300,2013-02-27 06:55:00
1:15 AM,6.8,6.8,100,30.07,8.0,NW,5.8,-,N/A,,Unknown,310,2013-02-27 07:15:00
1:35 AM,5.0,5.0,100,30.07,8.0,NW,5.8,-,N/A,,Unknown,310,2013-02-27 07:35:00
1:55 AM,6.8,6.8,100,30.07,10.0,NW,8.1,-,N/A,,Unknown,320,2013-02-27 07:55:00
2:15 AM,6.8,5.0,92,30.07,10.0,NW,6.9,-,N/A,,Unknown,320,2013-02-27 08:15:00
2:35 AM,6.8,6.8,100,30.07,10.0,NW,6.9,-,N/A,,Unknown,310,2013-02-27 08:35:00
2:55 AM,8.6,8.6,100,30.07,10.0,NW,6.9,-,N/A,,Unknown,320,2013-02-27 08:55:00
3:15 AM,8.6,8.6,100,30.07,10.0,NW,8.1,-,N/A,,Unknown,320,2013-02-27 09:15:00
3:35 AM,8.6,8.6,100,30.07,10.0,NW,8.1,-,N/A,,Unknown,320,2013-02-27 09:35:00
3:55 AM,10.4,8.6,92,30.07,10.0,NW,9.2,-,N/A,,Unknown,320,2013-02-27 09:55:00
4:15 AM,10.4,10.4,100,30.07,10.0,NW,12.7,-,N/A,,Unknown,320,2013-02-27 10:15:00
4:35 AM,10.4,8.6,92,30.06,10.0,NW,11.5,-,N/A,,Unknown,320,2013-02-27 10:35:00
4:55 AM,10.4,10.4,100,30.07,10.0,NW,13.8,-,N/A,,Unknown,320,2013-02-27 10:55:00
5:15 AM,12.2,10.4,92,30.07,10.0,NNW,16.1,-,N/A,,Unknown,330,2013-02-27 11:15:00
5:35 AM,12.2,10.4,92,30.08,10.0,NW,15.0,-,N/A,,Unknown,320,2013-02-27 11:35:00
5:55 AM,12.2,12.2,100,30.08,10.0,NNW,12.7,-,N/A,,Unknown,330,2013-02-27 11:55:00
6:15 AM,12.2,10.4,92,30.09,10.0,NNW,10.4,-,N/A,,Unknown,330,2013-02-27 12:15:00
6:55 AM,12.2,12.2,100,30.10,10.0,NW,15.0,-,N/A,,Unknown,320,2013-02-27 12:55:00
7:15 AM,12.2,10.4,92,30.10,10.0,NW,12.7,-,N/A,,Unknown,320,2013-02-27 13:15:00
7:35 AM,12.2,10.4,92,30.11,10.0,NNW,11.5,-,N/A,,Unknown,330,2013-02-27 13:35:00
7:55 AM,12.2,10.4,92,30.11,10.0,NNW,13.8,-,N/A,,Unknown,330,2013-02-27 13:55:00
8:15 AM,12.2,12.2,100,30.11,10.0,NW,11.5,-,N/A,,Unknown,310,2013-02-27 14:15:00
8:35 AM,14.0,14.0,100,30.11,10.0,NW,13.8,-,N/A,,Unknown,310,2013-02-27 14:35:00
9:15 AM,15.8,14.0,93,30.13,10.0,NW,15.0,-,N/A,,Unknown,320,2013-02-27 15:15:00
9:35 AM,15.8,15.8,100,30.13,10.0,NNW,15.0,-,N/A,,Unknown,330,2013-02-27 15:35:00
9:55 AM,17.6,15.8,93,30.13,10.0,NNW,12.7,-,N/A,,Unknown,330,2013-02-27 15:55:00
10:15 AM,17.6,17.6,100,30.13,10.0,NW,12.7,-,N/A,,Unknown,320,2013-02-27 16:15:00
10:55 AM,19.4,17.6,93,30.13,10.0,NW,11.5,-,N/A,,Unknown,320,2013-02-27 16:55:00
11:15 AM,21.2,19.4,93,30.14,10.0,NW,12.7,-,N/A,,Unknown,320,2013-02-27 17:15:00
11:35 AM,23.0,21.2,93,30.14,10.0,NW,17.3,-,N/A,,Unknown,320,2013-02-27 17:35:00
11:55 AM,23.0,23.0,100,30.14,10.0,NW,15.0,-,N/A,,Unknown,320,2013-02-27 17:55:00
12:15 PM,24.8,23.0,93,30.13,10.0,NW,16.1,21.9,N/A,,Unknown,320,2013-02-27 18:15:00
12:35 PM,24.8,23.0,93,30.13,10.0,NNW,17.3,-,N/A,,Unknown,330,2013-02-27 18:35:00
12:55 PM,24.8,23.0,93,30.14,10.0,NNW,16.1,-,N/A,,Unknown,330,2013-02-27 18:55:00
1:15 PM,24.8,24.8,100,30.13,10.0,NNW,17.3,-,N/A,,Unknown,330,2013-02-27 19:15:00
1:35 PM,26.6,24.8,93,30.13,10.0,NW,18.4,-,N/A,,Unknown,320,2013-02-27 19:35:00
1:55 PM,26.6,24.8,93,30.13,10.0,NW,18.4,-,N/A,,Unknown,320,2013-02-27 19:55:00
2:15 PM,26.6,24.8,93,30.13,10.0,NNW,18.4,-,N/A,,Unknown,330,2013-02-27 20:15:00
2:35 PM,26.6,24.8,93,30.13,10.0,NNW,18.4,21.9,N/A,,Unknown,330,2013-02-27 20:35:00
2:55 PM,26.6,24.8,93,30.13,10.0,NNW,18.4,26.5,N/A,,Unknown,330,2013-02-27 20:55:00
3:15 PM,26.6,26.6,100,30.12,10.0,NNW,18.4,25.3,N/A,,Unknown,330,2013-02-27 21:15:00
3:35 PM,26.6,26.6,100,30.12,10.0,NNW,23.0,-,N/A,,Unknown,330,2013-02-27 21:35:00
3:55 PM,26.6,26.6,100,30.13,10.0,NNW,21.9,26.5,N/A,,Unknown,330,2013-02-27 21:55:00
4:15 PM,26.6,26.6,100,30.13,10.0,NNW,16.1,-,N/A,,Unknown,330,2013-02-27 22:15:00
4:35 PM,26.6,26.6,100,30.13,10.0,NNW,23.0,-,N/A,,Unknown,330,2013-02-27 22:35:00
4:55 PM,26.6,24.8,93,30.13,10.0,NNW,24.2,28.8,N/A,,Overcast,330,2013-02-27 22:55:00
5:15 PM,26.6,24.8,93,30.14,10.0,NNW,24.2,29.9,N/A,,Unknown,330,2013-02-27 23:15:00
5:35 PM,26.6,24.8,93,30.14,10.0,NNW,23.0,29.9,N/A,,Unknown,330,2013-02-27 23:35:00
5:55 PM,26.6,24.8,93,30.15,10.0,NNW,20.7,-,N/A,,Unknown,330,2013-02-27 23:55:00
6:15 PM,24.8,24.8,100,30.15,10.0,NNW,21.9,26.5,N/A,,Unknown,330,2013-02-28 00:15:00
6:35 PM,24.8,23.0,93,30.17,10.0,NNW,17.3,24.2,N/A,,Unknown,330,2013-02-28 00:35:00
6:55 PM,23.0,23.0,100,30.17,10.0,NNW,17.3,-,N/A,,Unknown,330,2013-02-28 00:55:00
7:15 PM,23.0,23.0,100,30.17,10.0,NNW,18.4,23.0,N/A,,Unknown,330,2013-02-28 01:15:00
7:35 PM,23.0,21.2,93,30.18,10.0,NNW,16.1,-,N/A,,Unknown,330,2013-02-28 01:35:00
8:15 PM,23.0,23.0,100,30.18,10.0,NNW,18.4,-,N/A,,Unknown,330,2013-02-28 02:15:00
8:35 PM,23.0,21.2,93,30.18,10.0,NNW,18.4,-,N/A,,Unknown,330,2013-02-28 02:35:00
8:55 PM,21.2,19.4,93,30.19,10.0,NNW,16.1,-,N/A,,Unknown,330,2013-02-28 02:55:00
9:15 PM,19.4,19.4,100,30.19,10.0,NW,16.1,-,N/A,,Unknown,320,2013-02-28 03:15:00
9:35 PM,19.4,19.4,100,30.19,10.0,NNW,17.3,-,N/A,,Unknown,330,2013-02-28 03:35:00
9:55 PM,19.4,17.6,93,30.19,10.0,NNW,16.1,-,N/A,,Unknown,330,2013-02-28 03:55:00
10:15 PM,17.6,17.6,100,30.19,10.0,NW,16.1,-,N/A,,Unknown,320,2013-02-28 04:15:00
10:35 PM,17.6,17.6,100,30.18,10.0,NW,16.1,-,N/A,,Unknown,320,2013-02-28 04:35:00
10:55 PM,17.6,17.6,100,30.18,10.0,NNW,16.1,-,N/A,,Unknown,330,2013-02-28 04:55:00
11:15 PM,17.6,15.8,93,30.19,10.0,NW,16.1,-,N/A,,Unknown,320,2013-02-28 05:15:00
11:35 PM,17.6,15.8,93,30.19,10.0,NW,15.0,-,N/A,,Unknown,320,2013-02-28 05:35:00
11:55 PM,17.6,15.8,93,30.18,10.0,NW,16.1,-,N/A,,Unknown,320,2013-02-28 05:55:00